Stündliche Wetter Abla

Heute, 22 Juni, Dienstag

Zeit Temperatur Niederschläge Wind Luftdruck Luftfeuchtigkeit
00:00 +23°C° 0 mm 1 m/S 756 mmHg 85%
01:00 +23°C° 0 mm 1 m/S 756 mmHg 86%
02:00 +23°C° 0 mm 1 m/S 757 mmHg 87%
03:00 +22°C° 0 mm 1 m/S 757 mmHg 88%
04:00 +23°C° 0 mm 2 m/S 757 mmHg 84%
05:00 +24°C° 0 mm 2 m/S 757 mmHg 79%
06:00 +25°C° 0 mm 2 m/S 757 mmHg 75%
07:00 +27°C° 0 mm 2 m/S 757 mmHg 69%
08:00 +28°C° 0 mm 3 m/S 757 mmHg 63%
09:00 +30°C° 0 mm 3 m/S 757 mmHg 57%
10:00 +31°C° 0 mm 3 m/S 757 mmHg 53%
11:00 +33°C° 0 mm 3 m/S 757 mmHg 49%
12:00 +34°C° 0 mm 3 m/S 757 mmHg 45%
13:00 +34°C° 0 mm 3 m/S 757 mmHg 44%
14:00 +34°C° 0 mm 3 m/S 756 mmHg 43%
15:00 +34°C° 0 mm 3 m/S 756 mmHg 42%
16:00 +33°C° 0 mm 3 m/S 756 mmHg 49%
17:00 +30°C° 0 mm 3 m/S 756 mmHg 56%
18:00 +29°C° 0 mm 3 m/S 756 mmHg 63%
19:00 +28°C° 0.1 mm 3 m/S 756 mmHg 67%
20:00 +27°C° 0.1 mm 2 m/S 756 mmHg 70%
21:00 +26°C° 0.1 mm 2 m/S 756 mmHg 74%
22:00 +25°C° 0.1 mm 2 m/S 756 mmHg 77%
23:00 +24°C° 0.1 mm 2 m/S 756 mmHg 79%

Morgen, 23 Juni, Mittwoch

Zeit Temperatur Niederschläge Wind Luftdruck Luftfeuchtigkeit
00:00 +23°C° 0.1 mm 1 m/S 756 mmHg 82%
01:00 +23°C° 0 mm 2 m/S 756 mmHg 84%
02:00 +21°C° 0 mm 2 m/S 756 mmHg 87%
03:00 +21°C° 0 mm 2 m/S 756 mmHg 89%
04:00 +23°C° 0 mm 2 m/S 756 mmHg 86%
05:00 +24°C° 0 mm 3 m/S 756 mmHg 82%
06:00 +25°C° 0 mm 3 m/S 756 mmHg 78%
07:00 +27°C° 0 mm 3 m/S 756 mmHg 71%
08:00 +28°C° 0 mm 3 m/S 756 mmHg 64%
09:00 +30°C° 0 mm 4 m/S 756 mmHg 57%
10:00 +31°C° 0 mm 3 m/S 756 mmHg 53%
11:00 +33°C° 0 mm 3 m/S 756 mmHg 48%
12:00 +34°C° 0 mm 3 m/S 756 mmHg 44%
13:00 +33°C° 0.1 mm 3 m/S 755 mmHg 46%
14:00 +33°C° 0.1 mm 3 m/S 755 mmHg 48%
15:00 +33°C° 0.1 mm 3 m/S 755 mmHg 50%
16:00 +29°C° 0.6 mm 3 m/S 755 mmHg 60%
17:00 +27°C° 0.6 mm 3 m/S 755 mmHg 70%
18:00 +25°C° 0.6 mm 4 m/S 755 mmHg 80%
19:00 +23°C° 0.4 mm 4 m/S 755 mmHg 83%
20:00 +22°C° 0.4 mm 3 m/S 755 mmHg 87%
21:00 +21°C° 0.4 mm 3 m/S 755 mmHg 90%
22:00 +21°C° 0.4 mm 3 m/S 755 mmHg 91%
23:00 +20°C° 0.4 mm 2 m/S 755 mmHg 91%

übermorgen, 24 Juni, Donnerstag

Zeit Temperatur Niederschläge Wind Luftdruck Luftfeuchtigkeit
00:00 +20°C° 0.4 mm 2 m/S 755 mmHg 92%
01:00 +20°C° 0.1 mm 2 m/S 755 mmHg 91%
02:00 +20°C° 0.1 mm 2 m/S 755 mmHg 90%
03:00 +21°C° 0.1 mm 1 m/S 755 mmHg 89%
04:00 +22°C° 0.2 mm 1 m/S 755 mmHg 87%
05:00 +23°C° 0.2 mm 1 m/S 755 mmHg 85%
06:00 +24°C° 0.2 mm 1 m/S 755 mmHg 83%
07:00 +25°C° 0 mm 1 m/S 755 mmHg 78%
08:00 +27°C° 0 mm 1 m/S 755 mmHg 72%
09:00 +28°C° 0 mm 2 m/S 755 mmHg 66%
10:00 +29°C° 0 mm 2 m/S 755 mmHg 61%
11:00 +31°C° 0 mm 2 m/S 755 mmHg 57%
12:00 +32°C° 0 mm 2 m/S 755 mmHg 52%
13:00 +32°C° 0 mm 2 m/S 754 mmHg 49%
14:00 +34°C° 0 mm 2 m/S 754 mmHg 47%
15:00 +35°C° 0 mm 2 m/S 754 mmHg 44%
16:00 +32°C° 0 mm 2 m/S 754 mmHg 51%
17:00 +31°C° 0 mm 3 m/S 754 mmHg 58%
18:00 +30°C° 0 mm 3 m/S 753 mmHg 65%
19:00 +28°C° 0.2 mm 2 m/S 753 mmHg 70%
20:00 +26°C° 0.2 mm 2 m/S 753 mmHg 75%
21:00 +24°C° 0.2 mm 1 m/S 753 mmHg 79%
22:00 +24°C° 0 mm 2 m/S 753 mmHg 80%
23:00 +24°C° 0 mm 2 m/S 753 mmHg 80%

25 Juni, Freitag

Zeit Temperatur Niederschläge Wind Luftdruck Luftfeuchtigkeit
00:00 +23°C° 0 mm 2 m/S 753 mmHg 80%
01:00 +23°C° 0 mm 2 m/S 753 mmHg 83%
02:00 +23°C° 0 mm 2 m/S 753 mmHg 85%
03:00 +23°C° 0 mm 2 m/S 752 mmHg 87%
04:00 +24°C° 0.1 mm 2 m/S 752 mmHg 85%
05:00 +24°C° 0.1 mm 2 m/S 752 mmHg 84%
06:00 +25°C° 0.1 mm 2 m/S 752 mmHg 82%
07:00 +27°C° 0 mm 2 m/S 752 mmHg 75%
08:00 +28°C° 0 mm 2 m/S 752 mmHg 69%
09:00 +30°C° 0 mm 3 m/S 752 mmHg 62%
10:00 +31°C° 0 mm 3 m/S 752 mmHg 57%
11:00 +33°C° 0 mm 3 m/S 752 mmHg 52%
12:00 +35°C° 0 mm 3 m/S 752 mmHg 48%
13:00 +35°C° 0 mm 3 m/S 752 mmHg 46%
14:00 +35°C° 0 mm 3 m/S 752 mmHg 44%
15:00 +36°C° 0 mm 3 m/S 751 mmHg 43%
16:00 +35°C° 0 mm 2 m/S 751 mmHg 50%
17:00 +34°C° 0 mm 2 m/S 751 mmHg 57%
18:00 +31°C° 0 mm 2 m/S 750 mmHg 64%
19:00 +30°C° 0 mm 2 m/S 750 mmHg 68%
20:00 +28°C° 0 mm 2 m/S 750 mmHg 73%
21:00 +27°C° 0 mm 2 m/S 751 mmHg 77%
22:00 +25°C° 0.3 mm 2 m/S 750 mmHg 80%
23:00 +23°C° 0.3 mm 2 m/S 750 mmHg 83%

26 Juni, Samstag

Zeit Temperatur Niederschläge Wind Luftdruck Luftfeuchtigkeit
00:00 +21°C° 0.3 mm 2 m/S 750 mmHg 86%
01:00 +21°C° 0 mm 2 m/S 750 mmHg 85%
02:00 +22°C° 0 mm 1 m/S 750 mmHg 85%
03:00 +21°C° 0 mm 1 m/S 750 mmHg 84%
04:00 +22°C° 0 mm 1 m/S 750 mmHg 82%
05:00 +23°C° 0 mm 1 m/S 750 mmHg 79%
06:00 +25°C° 0 mm 1 m/S 750 mmHg 76%
07:00 +26°C° 0 mm 1 m/S 750 mmHg 71%
08:00 +28°C° 0 mm 1 m/S 750 mmHg 66%
09:00 +29°C° 0 mm 1 m/S 750 mmHg 62%
10:00 +30°C° 0 mm 1 m/S 750 mmHg 58%
11:00 +31°C° 0 mm 1 m/S 749 mmHg 55%
12:00 +32°C° 0 mm 1 m/S 749 mmHg 51%
13:00 +33°C° 0 mm 1 m/S 749 mmHg 49%
14:00 +33°C° 0 mm 1 m/S 749 mmHg 47%
15:00 +34°C° 0 mm 1 m/S 749 mmHg 45%
16:00 +32°C° 0.3 mm 2 m/S 748 mmHg 53%
17:00 +31°C° 0.3 mm 2 m/S 748 mmHg 61%
18:00 +29°C° 0.3 mm 3 m/S 747 mmHg 69%
19:00 +27°C° 3.3 mm 4 m/S 748 mmHg 74%
20:00 +25°C° 3.3 mm 4 m/S 748 mmHg 79%
21:00 +22°C° 3.3 mm 5 m/S 748 mmHg 84%
22:00 +21°C° 0.4 mm 3 m/S 748 mmHg 84%
23:00 +21°C° 0.4 mm 2 m/S 748 mmHg 85%

27 Juni, Sonntag

Zeit Temperatur Niederschläge Wind Luftdruck Luftfeuchtigkeit
00:00 +22°C° 0.4 mm 1 m/S 747 mmHg 86%
01:00 +22°C° 0.1 mm 1 m/S 747 mmHg 87%
02:00 +22°C° 0.1 mm 1 m/S 747 mmHg 88%
03:00 +21°C° 0.1 mm 1 m/S 747 mmHg 89%
04:00 +21°C° 0 mm 2 m/S 747 mmHg 88%
05:00 +21°C° 0 mm 3 m/S 747 mmHg 87%
06:00 +22°C° 0 mm 4 m/S 748 mmHg 86%
07:00 +23°C° 0 mm 4 m/S 748 mmHg 81%
08:00 +25°C° 0 mm 4 m/S 748 mmHg 76%
09:00 +26°C° 0 mm 4 m/S 748 mmHg 71%
10:00 +27°C° 0 mm 4 m/S 748 mmHg 69%
11:00 +27°C° 0 mm 5 m/S 748 mmHg 67%
12:00 +28°C° 0 mm 5 m/S 748 mmHg 65%
13:00 +27°C° 0.1 mm 5 m/S 748 mmHg 66%
14:00 +27°C° 0.1 mm 5 m/S 749 mmHg 66%
15:00 +27°C° 0.1 mm 6 m/S 749 mmHg 66%
16:00 +26°C° 0 mm 5 m/S 749 mmHg 65%
17:00 +26°C° 0 mm 5 m/S 749 mmHg 63%
18:00 +25°C° 0 mm 5 m/S 749 mmHg 61%
19:00 +23°C° 0 mm 4 m/S 750 mmHg 64%
20:00 +21°C° 0 mm 4 m/S 750 mmHg 68%
21:00 +19°C° 0 mm 3 m/S 750 mmHg 71%
22:00 +18°C° 0 mm 3 m/S 751 mmHg 72%
23:00 +17°C° 0 mm 3 m/S 751 mmHg 73%
Mehr zeigen

Wir brauchen deine Erlaubnis

Meteoprog und unser Service Anbieter werden persönliche Daten aufbewahren, so wie Cookies, Geräte Bezeichnung oder ähnliche Technologien von deinem Gerät und Prozess, so wie Persönliche Daten Inhalte und Werbungen, genauso wie social Media und den Verkehr zu analysieren.

  • Aufbewahrung und/oder Zugang zu deiner Geräte Informationen.

    Cookies, Geräte Bezeichnung oder andere Informationen, können aufbewahrt oder Zugang zu deinem Gerät erhalten, für den Grund, der oben angegeben wird.

  • Personalisierte Werbung und Inhalte, Messungen, Einblick in das Publikum und Produkt Entwicklung.

    Werbungen und Inhalte können personalisiert werden, basierend auf ein Profil. Mehr Daten können besser personalisierte Werbungen und Inhalte hinzufügen. Werbung und Inhalte können gezeigt und gemessen werden. Einblicke über das Publikum, welche die Werbung gesehen haben und den Inhalt, können abgeleitet werden. So wie Daten können genutzt werden, um es zu verbessern oder die Benutzer Erfahrung zu verbessern das System und die Software.

Wenn du “Ich stimme zu” klickst, erlaubst du uns, die Cookies zu benutzen die Geräte Bezeichnung, den Web oder ähnliche Technologien zu benutzen. Deine Settings, können in deinem Gerät bei deinem Browser geändert werden.

Für den bestimmten Zweck, berechtigten Interessen beruhen darauf, mehr als auf den Inhalt. Du kannst mehr darüber in unseren Privaten und Cookie Politik lesen.